Wind_Speed
5 5 5 5 5 5 5 4 4 4 4 4 4 4 4 4 4 4 4 4 4 4 5 5 6 7 7 8 8 8 8 10 11 12 12 11 7 1 5 4 2 2 2 2 1 1 1 1 2 3 2 2 3 4 4 4 3 3 2 3 1 2 2 4 6 6 4 1 3 6 8 3 2 6 8 8 7 9 12 13 10 7 5 5 8 11 15 13
7 7 7 6 6 6 6 6 5 5 5 5 5 5 5 5 5 5 5 5 6 6 6 7 7 8 9 9 9 9 10 11 13 13 10 5 2 8 7 5 4 5 4 4 4 3 2 2 2 2 2 2 3 3 3 3 4 3 3 2 1 4 3 4 6 6 3 2 4 7 7 3 3 6 8 5 9 13 13 13 9 5 5 7 11 11 11 10
10 9 9 8 7 7 7 7 7 7 7 6 6 6 6 6 6 6 7 7 7 7 7 8 8 9 9 10 10 10 11 13 13 9 1 5 9 10 6 4 5 6 6 5 5 4 3 3 2 2 2 2 2 3 3 3 3 2 4 2 4 5 4 5 5 5 4 4 6 6 5 5 6 5 4 3 10 11 6 8 7 8 14 15 13 10 8 8
12 12 12 11 9 9 9 9 9 8 8 8 8 8 8 8 8 8 8 8 9 9 9 9 9 10 10 10 10 10 12 13 8 1 7 9 8 6 3 3 6 7 7 7 5 4 3 2 1 1 1 2 2 2 3 3 1 2 3 2 4 3 1 3 3 2 3 5 6 5 5 7 5 3 3 2 5 6 3 4 5 11 18 15 11 10 8 5
14 14 14 13 12 11 11 11 10 10 9 9 9 9 9 9 9 9 9 10 10 10 10 10 10 11 11 11 10 10 10 8 1 7 8 6 3 3 2 4 6 9 9 7 5 3 2 2 1 0 1 1 2 2 1 2 2 2 2 2 4 4 1 2 1 2 3 4 5 5 5 5 6 6 4 3 3 4 7 9 10 12 12 9 8 7 5 5
16 16 15 15 14 13 13 12 12 12 11 11 11 11 10 10 10 10 11 11 11 11 12 11 11 11 12 11 11 10 6 2 1 5 5 4 5 7 8 8 8 9 9 7 5 3 3 3 2 1 2 2 2 2 1 2 2 1 1 2 2 4 4 4 4 6 6 6 6 6 7 7 8 7 3 1 2 5 10 11 9 7 4 4 4 3 3 5
18 17 17 17 16 15 15 14 14 13 13 12 12 12 12 12 11 12 12 12 13 13 12 12 12 12 12 12 11 10 8 8 7 7 9 10 11 12 12 12 11 10 9 6 4 3 3 2 2 2 3 2 1 2 2 2 2 2 1 2 2 4 6 7 8 9 10 11 12 10 10 9 7 6 2 3 1 3 5 3 1 1 1 1 1 1 3 5
19 19 18 18 18 17 16 16 16 15 14 14 14 13 13 13 13 13 13 13 14 13 13 13 12 12 11 12 11 10 12 13 11 11 12 13 13 14 14 14 12 11 8 6 4 3 3 3 3 2 2 0 1 2 3 1 1 3 2 2 1 5 7 9 11 14 15 14 14 10 11 10 6 6 2 4 1 0 2 3 3 5 5 4 3 2 3 3
20 20 19 19 19 19 18 18 17 17 16 15 15 15 14 14 14 14 14 14 14 14 14 13 13 13 11 12 10 9 11 11 8 9 10 11 12 13 13 13 12 10 7 5 4 4 3 2 3 3 1 2 2 2 4 2 2 3 3 2 3 7 10 12 13 14 13 13 11 7 9 7 2 2 2 5 2 3 4 5 5 4 2 3 4 5 5 4
21 20 20 20 20 19 20 19 19 18 17 17 16 16 16 15 15 15 15 14 14 14 14 13 13 13 12 12 8 5 10 9 6 6 6 7 7 9 10 11 10 9 7 6 4 3 3 2 2 3 2 2 3 3 4 3 1 1 1 4 7 10 12 12 13 14 13 13 10 7 7 3 3 3 2 4 2 5 5 5 5 2 1 4 5 5 6 6
21 20 20 20 20 20 20 20 20 19 18 18 17 17 16 16 16 15 15 14 14 14 14 14 14 13 13 12 9 8 9 9 6 6 6 6 6 6 7 8 8 9 8 6 5 4 3 3 1 2 2 2 3 2 3 2 1 2 3 6 8 10 12 12 11 11 7 7 6 5 4 2 3 3 3 4 3 5 4 3 3 1 2 3 3 4 5 6
21 20 20 20 20 20 20 20 19 19 18 18 17 17 16 16 16 15 15 14 14 15 15 15 14 13 12 12 15 15 13 12 10 9 9 8 8 7 7 8 8 8 8 7 7 5 3 3 3 3 2 3 3 1 2 1 1 2 4 4 8 9 8 8 4 2 1 1 2 1 2 4 3 3 5 4 3 3 3 2 1 1 2 2 2 2 3 4
21 20 20 19 20 19 19 19 18 18 18 17 17 16 16 16 15 15 15 15 15 15 15 14 13 13 11 11 17 17 14 15 14 14 14 13 13 12 11 11 10 9 9 8 8 6 4 4 5 4 4 4 2 1 2 2 2 2 3 2 5 7 5 4 3 2 1 1 1 2 2 4 0 2 6 3 4 4 2 2 2 3 3 2 2 2 3 4
21 21 20 19 19 19 19 18 18 17 17 16 16 16 16 16 15 16 16 15 15 14 14 14 12 12 10 12 16 16 15 15 14 15 15 16 15 14 13 11 11 10 10 9 8 7 6 5 6 6 5 4 3 4 1 4 3 2 1 2 2 2 5 5 4 3 1 0 2 3 1 4 3 1 8 5 3 4 1 5 5 4 4 3 3 3 3 5
21 21 20 19 19 19 18 18 17 16 16 16 16 16 16 16 16 16 15 15 15 14 13 12 11 10 9 12 15 15 15 16 16 16 15 15 14 12 11 10 10 10 9 9 8 7 6 6 7 5 5 5 5 5 2 4 3 2 1 3 2 1 5 7 5 2 1 1 2 5 2 4 3 1 8 6 2 3 4 7 6 5 5 4 4 4 4 5
22 21 20 20 19 19 18 17 17 17 16 16 16 16 16 16 16 15 15 15 14 13 12 11 11 9 6 9 13 13 13 13 13 14 15 14 13 11 10 10 10 10 8 7 6 5 7 7 6 5 5 5 5 4 3 3 3 3 0 3 3 1 3 6 4 3 2 2 3 3 2 3 2 2 8 5 3 2 7 8 7 6 6 5 5 5 5 5
23 21 21 20 20 19 19 18 18 17 17 17 16 16 16 16 16 15 15 13 13 13 11 8 8 8 8 11 12 13 14 13 11 11 12 13 13 12 11 11 10 9 8 7 7 7 8 7 6 4 3 3 3 4 3 2 4 3 1 2 4 3 2 3 3 4 5 3 1 3 0 5 4 4 8 6 4 3 8 9 7 7 6 6 6 6 6 5
23 22 21 21 21 20 20 19 18 18 17 17 16 16 15 15 15 14 13 13 12 9 8 10 7 2 8 15 14 12 11 10 12 12 11 12 13 12 12 10 9 9 9 8 7 8 7 5 4 2 3 3 2 5 3 5 4 3 2 2 3 2 3 4 4 2 5 3 2 3 2 8 6 4 10 8 5 5 9 9 7 7 6 6 6 6 7 6
24 22 22 21 21 22 21 20 18 18 18 17 16 15 14 13 13 13 14 13 12 7 4 10 12 4 3 9 12 12 10 9 10 12 13 13 12 12 11 9 10 11 10 6 5 7 6 4 4 1 1 3 6 7 8 7 6 6 5 4 3 3 4 4 4 3 1 2 3 5 5 9 9 2 7 7 6 8 10 8 7 7 7 7 7 7 8 8
25 23 22 22 22 22 21 20 18 18 18 17 15 13 11 9 6 8 13 17 19 18 12 11 14 13 7 4 7 9 8 9 9 11 13 13 13 13 12 11 10 9 6 5 3 4 5 3 3 5 6 8 9 9 6 4 6 5 4 4 4 4 5 4 4 4 0 1 4 4 4 7 8 4 5 3 5 8 8 7 8 8 7 8 8 8 8 8
25 24 22 22 22 22 21 19 18 19 19 16 15 12 10 9 5 3 7 13 19 22 23 20 17 16 13 9 7 7 8 9 9 11 12 13 14 12 12 11 8 4 3 4 5 3 4 5 8 8 7 8 8 7 5 4 5 4 4 3 3 4 6 5 3 4 1 2 3 1 1 7 5 2 5 3 4 6 5 6 8 7 8 8 8 9 8 9
26 24 22 21 21 22 21 19 18 19 18 16 17 16 13 11 10 8 6 8 13 17 20 23 23 22 21 16 12 10 10 8 9 13 14 16 17 12 12 10 5 4 3 4 6 3 2 5 10 8 6 6 3 5 6 4 4 2 3 2 3 3 3 4 2 4 2 3 3 3 2 6 2 2 5 6 5 6 5 5 7 7 8 9 9 10 10 11
27 24 22 20 20 21 21 19 18 18 19 19 20 20 16 12 10 9 8 7 11 17 19 22 26 28 27 24 20 17 14 10 11 15 17 19 19 15 13 10 4 4 4 5 6 4 3 6 9 8 10 7 3 4 6 4 3 3 3 3 4 3 1 3 3 3 2 1 2 1 3 4 0 1 3 5 7 8 8 7 7 7 8 10 10 11 12 14
25 24 23 21 19 20 19 17 17 19 21 22 22 21 17 14 9 7 8 6 7 12 18 21 23 26 28 25 21 20 20 16 13 16 20 22 20 14 11 10 5 4 5 8 8 6 6 5 2 7 8 7 4 4 6 5 2 4 5 6 5 4 6 6 2 2 2 3 0 0 4 4 1 1 1 2 5 7 6 7 8 7 8 10 11 13 15 17
23 23 22 20 21 20 16 16 20 22 22 24 22 18 15 13 9 4 5 4 5 6 11 16 17 21 25 21 18 19 18 17 16 16 20 25 23 13 7 9 6 5 7 6 6 5 7 4 5 7 4 6 6 4 6 7 3 3 5 10 10 8 7 5 1 3 2 3 2 1 1 4 2 2 3 2 1 2 2 4 6 6 8 10 12 15 17 19
23 23 20 21 24 20 14 17 22 23 24 24 19 14 14 12 6 3 1 2 5 4 4 10 11 11 15 17 18 16 7 10 16 18 20 25 25 14 6 6 4 3 6 6 3 3 3 3 5 5 5 6 5 4 6 7 5 2 5 9 10 7 6 5 4 3 1 2 2 2 2 3 5 3 2 3 2 1 0 1 4 6 8 11 14 16 18 20
25 25 22 24 26 21 18 19 21 22 22 20 15 15 14 11 8 4 2 3 6 5 7 8 9 9 11 14 22 17 2 5 12 16 21 24 22 15 7 4 3 2 5 6 1 2 3 4 3 4 5 5 4 5 6 8 7 3 3 5 7 7 7 6 6 4 2 2 2 2 3 2 4 3 1 3 3 1 2 2 3 7 9 11 14 16 19 21
27 27 25 26 26 23 22 22 20 22 20 12 11 16 15 13 12 6 3 2 3 5 6 5 8 10 12 18 22 13 4 9 9 9 20 23 19 12 6 7 7 4 5 6 4 3 3 5 5 7 5 4 5 4 7 11 5 4 2 5 6 6 6 5 6 3 1 1 3 3 2 2 4 4 1 2 2 2 5 6 6 9 11 13 15 16 18 21
28 28 27 26 26 23 23 23 20 19 17 10 12 16 16 16 12 5 2 4 2 4 3 7 9 9 14 17 13 6 6 5 3 8 17 18 16 8 3 7 9 7 3 3 4 3 1 3 6 8 5 5 4 1 6 9 3 4 6 7 5 5 5 4 4 3 2 1 4 5 3 2 4 4 1 1 3 5 6 5 7 12 14 14 17 18 19 21
30 29 28 26 27 26 25 28 25 18 15 15 15 18 20 16 8 4 4 5 2 3 4 7 7 8 14 12 3 1 4 2 5 12 12 9 11 6 6 7 7 6 2 4 0 3 1 1 2 4 4 5 5 3 2 3 5 9 7 6 6 6 4 3 2 3 3 2 5 5 3 2 2 5 3 3 3 4 6 5 6 12 16 17 18 19 20 22
30 30 29 29 32 31 30 35 32 22 19 18 18 22 20 9 3 4 8 2 1 2 5 4 2 7 13 9 3 3 3 2 6 12 7 5 7 5 7 6 4 4 2 3 1 3 2 1 1 3 5 7 8 5 5 4 5 7 4 4 4 3 3 3 4 3 1 4 5 3 1 2 3 4 3 3 3 2 5 7 8 13 18 21 21 21 21 23
32 31 30 32 34 33 34 37 32 24 22 20 23 25 16 4 2 8 6 2 1 4 5 4 3 6 9 4 3 5 4 2 5 6 4 3 5 5 4 4 5 3 2 4 2 3 1 3 2 2 5 7 6 4 4 4 2 3 4 6 4 2 2 2 2 1 3 5 3 1 1 2 5 6 4 4 4 3 3 7 14 20 24 25 24 23 23 24
32 30 30 32 35 35 35 34 30 27 25 25 27 21 9 3 9 12 9 3 2 2 4 4 3 4 7 4 3 4 4 2 4 3 2 3 4 4 2 2 6 4 1 5 3 1 2 4 2 4 3 8 8 5 3 1 2 4 4 5 4 2 2 1 3 2 3 3 2 2 1 1 4 5 3 5 3 3 3 6 14 23 27 28 27 25 24 25
32 29 31 32 34 36 34 31 31 30 27 29 25 12 5 9 12 10 10 7 1 2 3 4 5 5 6 4 3 5 3 1 5 5 2 4 4 5 4 3 4 4 4 3 3 5 3 3 5 5 3 8 10 6 6 6 4 3 3 4 4 4 4 4 4 3 3 2 2 3 1 4 4 2 2 2 3 4 4 6 12 20 25 27 27 26 25 26
34 30 32 33 33 35 35 34 32 31 33 32 18 6 9 13 9 5 8 6 2 2 3 3 7 6 4 2 2 5 4 2 4 5 3 5 5 6 5 6 6 4 5 4 2 3 3 4 5 1 2 8 9 5 6 7 3 2 1 4 2 4 4 2 3 5 3 1 2 2 3 4 4 1 2 3 4 3 4 7 12 19 23 25 26 27 27 27
36 33 33 34 36 37 36 38 34 33 38 30 11 8 13 10 4 4 5 5 5 6 6 3 4 4 3 2 2 5 3 1 5 4 2 3 3 5 4 5 8 8 6 6 3 2 2 4 4 2 2 2 4 4 4 3 3 2 2 3 4 3 6 4 1 1 3 1 3 2 3 3 0 1 2 2 2 2 2 5 13 19 22 25 27 29 29 29
40 37 35 37 39 38 38 40 36 37 40 26 9 10 10 6 4 4 3 5 8 11 10 4 4 5 5 4 4 7 3 1 5 4 3 3 3 6 5 4 8 12 10 5 2 3 4 1 3 1 1 1 2 5 6 4 4 5 3 5 3 2 4 4 2 2 3 2 4 1 4 3 2 2 2 1 2 5 4 5 10 16 21 25 29 32 32 31
42 39 38 40 40 38 39 39 37 40 35 16 10 14 7 4 5 3 2 5 7 9 8 7 7 5 7 6 5 7 6 4 5 5 5 4 4 7 9 5 8 16 17 8 1 2 4 1 4 1 2 0 2 5 4 4 3 4 3 3 3 3 1 2 2 2 1 3 4 2 2 3 4 4 3 5 9 9 6 5 8 15 22 27 32 35 33 32
41 34 32 37 40 39 37 37 40 40 24 6 9 13 4 2 3 3 4 4 4 6 7 7 5 3 5 7 5 7 9 7 8 6 5 4 4 6 9 5 6 13 17 12 4 1 3 3 2 2 1 1 2 2 3 2 1 3 2 1 2 2 3 2 2 3 2 2 3 2 1 3 5 6 8 12 13 11 10 8 10 17 26 32 36 38 37 35
38 24 18 29 38 38 35 37 38 29 13 5 9 7 1 1 2 4 6 4 2 4 4 3 4 4 6 5 3 5 7 7 9 6 4 6 4 4 7 6 5 6 9 9 5 1 3 2 2 2 2 2 2 2 5 7 4 2 2 2 1 1 2 1 1 2 3 3 2 2 4 4 4 3 8 10 8 10 13 12 12 20 29 34 38 40 40 38
34 15 11 24 32 35 38 33 24 15 7 8 10 7 5 3 1 3 6 6 3 2 1 2 3 4 5 5 4 5 6 5 7 6 4 6 5 2 7 9 10 9 6 5 5 3 2 3 3 2 1 3 4 3 2 4 4 4 4 5 5 3 3 2 3 1 2 2 3 2 4 5 3 2 4 4 3 8 13 13 14 23 32 36 39 41 41 41
28 10 8 21 26 34 37 21 12 12 10 9 10 10 9 5 3 4 5 5 3 1 1 2 2 2 3 4 3 5 7 5 7 7 4 6 6 3 7 13 17 17 10 4 4 3 3 3 4 2 3 4 4 3 1 1 1 3 2 3 4 3 4 4 6 3 1 1 2 2 3 4 3 2 2 3 3 7 15 17 17 25 33 37 39 40 41 41
23 11 10 19 26 37 31 10 7 12 9 8 9 11 11 7 5 6 5 6 4 2 3 2 1 3 3 2 2 6 8 5 7 7 3 4 5 2 7 15 18 15 8 3 3 3 3 3 3 1 2 1 2 3 2 1 2 2 2 1 4 3 1 2 3 2 3 4 3 2 4 4 2 2 2 4 3 6 15 21 20 22 27 31 34 38 41 41
15 11 11 17 29 38 25 7 9 11 8 7 6 8 12 9 8 9 8 7 6 3 3 2 2 3 2 2 2 5 6 4 5 5 2 3 4 2 7 14 14 8 4 4 7 8 5 2 4 3 0 1 1 0 0 1 1 3 2 2 3 4 3 2 0 2 2 5 7 4 7 4 1 2 3 3 1 4 12 19 21 21 23 27 33 39 41 40
8 7 8 15 29 33 16 3 6 8 8 10 8 8 9 5 8 14 12 9 8 6 3 3 3 4 2 2 2 2 4 2 3 3 2 2 2 1 4 8 8 4 2 5 12 14 7 3 5 6 5 5 4 3 3 2 2 2 1 2 4 5 6 3 1 2 4 3 6 6 6 2 1 2 3 3 1 3 9 15 19 21 22 27 34 39 40 39
4 3 4 8 17 20 10 3 4 4 6 9 8 8 11 7 5 11 13 10 10 9 4 2 4 5 2 2 3 3 4 1 3 3 3 3 1 2 1 3 3 2 4 10 17 14 4 1 6 7 7 8 5 3 3 3 4 3 3 6 6 6 8 6 2 4 4 2 3 7 5 4 5 3 4 6 4 5 7 11 18 23 25 28 31 34 36 38
2 1 4 4 5 6 5 5 5 3 3 6 4 3 11 13 4 4 9 8 9 11 4 1 4 5 4 6 5 4 5 2 3 4 4 3 2 2 1 2 1 2 5 9 12 8 3 2 6 7 7 7 4 4 4 3 4 6 7 9 10 9 10 10 9 8 5 4 8 9 6 7 9 6 7 8 6 6 7 11 18 23 25 27 27 27 30 35
3 1 4 6 4 2 3 5 7 5 3 2 2 1 4 12 9 5 5 3 5 10 5 1 3 6 6 9 7 4 5 5 4 4 3 3 3 1 2 3 2 1 2 3 3 4 4 4 5 5 7 5 3 4 5 5 4 6 8 11 13 11 11 13 14 9 7 7 10 4 6 9 8 6 8 10 9 9 11 14 17 18 20 23 23 24 28 33
6 3 3 5 4 3 4 6 8 7 3 3 2 0 1 7 8 4 2 2 1 2 3 2 4 3 3 4 4 4 6 5 4 4 3 4 4 3 2 1 1 1 1 2 1 1 3 2 3 5 5 5 2 4 5 6 5 4 8 14 14 11 11 12 13 9 9 11 6 3 4 9 6 5 8 11 11 10 10 10 12 13 16 18 21 24 27 31
6 5 5 5 3 4 6 8 8 6 4 3 3 2 2 3 4 2 2 3 2 1 0 3 3 3 2 3 3 4 4 3 4 2 3 4 3 2 2 2 2 2 2 2 0 1 1 1 3 5 2 3 1 4 3 5 6 6 13 17 10 6 8 10 10 7 7 8 5 4 7 10 6 7 10 10 9 8 8 9 9 11 14 16 18 22 25 28
8 8 8 6 3 4 6 6 6 4 3 3 3 4 4 4 5 4 1 2 4 3 3 5 5 4 4 4 6 6 4 5 5 3 5 6 4 4 3 3 5 4 1 2 2 1 2 1 2 4 3 2 1 5 5 3 2 6 18 17 8 8 9 8 7 6 8 8 7 8 10 9 5 8 9 9 9 10 11 11 10 11 12 14 16 18 20 24
10 9 9 6 3 5 5 3 3 4 2 4 5 4 5 5 7 7 3 2 4 5 6 8 7 5 4 7 9 9 10 10 7 6 9 9 7 8 7 7 10 8 5 4 2 1 4 4 2 3 4 1 0 4 5 4 1 7 15 11 13 13 8 4 4 7 9 10 8 8 10 7 4 7 7 7 9 11 12 12 12 12 12 12 14 14 15 18
Wind_Direction
263 255 251 248 244 241 236 231 223 217 214 216 214 212 216 217 222 230 238 254 261 271 284 291 302 307 311 313 313 315 316 318 319 320 318 315 312 215 153 135 96 27 351 345 360 347 314 321 317 327 339 13 27 47 67 59 48 32 91 80 25 173 189 178 182 191 164 287 289 325 346 14 346 339 341 326 306 307 311 314 318 313 307 308 306 304 302 302
266 264 260 257 255 254 250 245 240 235 232 233 233 232 235 236 243 249 253 264 269 274 283 291 298 301 306 309 311 314 315 316 316 314 314 316 125 132 131 106 51 6 340 320 316 314 304 314 317 338 359 27 36 55 79 52 49 66 110 71 255 201 207 192 183 191 182 301 288 312 329 333 319 321 337 330 303 318 322 322 338 350 342 327 315 312 305 303
266 267 265 262 260 260 258 254 249 245 244 243 244 244 244 246 252 256 259 265 271 275 281 288 292 297 301 306 310 315 319 318 318 316 321 132 132 127 114 74 27 360 339 322 311 301 293 299 314 348 1 37 51 68 81 49 48 85 103 87 243 217 224 219 205 212 228 279 291 311 313 304 313 307 319 312 302 315 321 320 340 335 327 329 326 324 322 314
265 266 266 264 263 262 260 259 256 253 251 251 251 251 251 254 257 259 263 266 272 275 279 285 289 295 298 303 309 315 323 324 321 151 142 139 140 139 110 37 8 353 339 330 312 286 275 265 275 332 3 50 52 76 73 37 49 148 124 153 212 186 222 237 216 262 271 274 283 294 299 306 320 307 288 285 307 314 329 335 330 317 319 324 322 328 345 357
267 266 265 264 263 262 262 261 260 259 256 256 255 255 256 258 260 264 266 268 272 275 280 285 290 294 296 301 306 313 332 342 8 143 152 159 175 222 271 315 334 341 336 330 312 273 246 231 231 346 55 55 50 67 52 48 95 147 166 186 173 155 231 297 15 340 308 289 282 281 292 303 311 311 287 248 262 294 309 311 305 307 309 314 323 338 15 48
267 265 264 264 263 261 262 262 261 261 259 258 258 258 258 260 262 265 267 270 273 276 280 284 288 291 294 298 301 307 323 324 200 164 188 231 263 274 283 291 307 324 325 323 312 269 230 216 207 145 81 55 67 78 80 122 130 157 259 228 196 202 242 291 309 315 307 294 285 282 291 296 305 314 311 259 249 280 298 300 298 301 297 305 337 11 42 41
265 264 263 262 262 261 260 260 260 260 259 259 259 259 260 262 264 266 269 271 273 276 279 281 285 287 290 294 297 302 290 271 266 253 253 257 261 268 275 282 289 303 306 305 300 253 222 212 195 143 93 60 106 112 109 146 144 133 261 277 260 246 258 288 299 301 298 289 288 291 288 289 297 300 334 35 332 293 301 301 286 204 161 193 163 54 31 19
264 262 262 261 260 260 259 258 258 258 258 258 259 260 261 263 265 267 269 270 272 275 277 279 281 283 287 290 294 297 283 279 279 267 261 255 254 259 265 271 278 290 287 281 282 244 225 218 207 168 99 64 192 153 131 151 147 142 226 277 272 267 278 293 294 294 294 291 293 290 277 280 286 277 325 46 44 168 152 153 128 135 141 143 135 83 54 26
262 261 261 260 259 259 259 258 257 256 257 258 259 260 261 262 264 265 266 268 271 273 275 278 280 282 285 286 291 293 284 287 286 267 259 252 250 252 257 263 268 275 268 261 267 241 225 213 215 211 220 213 171 150 141 159 277 187 200 278 274 281 292 295 289 289 290 290 291 279 277 291 293 238 72 56 68 132 154 166 141 144 153 72 50 44 34 19
260 259 259 259 258 258 258 257 256 256 256 257 258 259 260 260 262 263 265 268 270 272 275 276 278 281 281 281 277 274 282 284 280 264 252 249 250 248 252 258 260 260 254 252 251 233 217 212 224 203 218 200 142 134 151 152 335 175 268 297 279 287 298 293 284 283 283 283 279 257 275 309 126 150 88 30 71 150 167 161 144 157 15 33 23 10 1 351
259 258 258 258 258 257 257 257 256 255 255 255 255 257 259 261 262 265 266 268 270 272 275 276 279 278 277 275 248 238 274 276 266 260 248 252 255 251 251 251 254 249 242 240 227 211 207 216 212 184 207 170 137 144 177 176 8 9 344 306 293 311 308 295 285 280 278 281 275 235 249 7 101 125 54 20 78 153 184 148 128 87 39 35 12 352 343 337
259 257 256 257 258 258 257 257 256 256 255 255 256 257 259 261 263 265 267 269 270 272 274 275 276 273 272 267 252 253 268 267 262 259 251 255 255 252 256 255 254 247 239 229 215 209 213 227 218 215 204 154 144 107 153 147 359 346 14 323 306 339 328 309 326 304 216 272 306 202 278 1 60 98 49 28 107 165 208 152 123 91 73 55 37 356 348 347
259 258 257 257 256 256 256 256 256 256 256 255 257 258 259 261 263 265 266 267 270 271 273 272 270 270 266 260 261 264 265 262 261 259 255 256 256 257 260 257 251 243 233 222 219 224 236 243 227 212 183 156 160 153 131 83 35 316 31 41 319 349 333 324 26 359 343 259 238 91 298 309 196 93 32 32 171 202 225 119 115 111 100 82 63 14 13 11
258 258 257 256 255 255 255 254 254 254 254 255 256 257 259 261 263 265 266 268 269 268 268 267 266 264 255 256 266 266 261 260 258 256 257 256 256 257 255 250 242 232 227 227 234 245 248 240 218 195 174 162 148 138 91 26 36 322 359 41 0 359 287 299 353 329 16 312 199 132 241 272 214 276 16 35 168 206 172 100 103 102 96 87 70 45 25 23
254 256 255 253 253 253 253 252 251 252 252 253 255 259 261 263 265 265 266 266 265 264 263 262 261 258 253 258 263 262 258 256 254 252 252 252 252 250 240 232 227 223 228 236 242 243 230 207 193 169 151 152 133 114 26 354 19 19 339 313 340 133 272 307 349 2 94 83 74 122 212 286 196 235 17 45 144 177 127 103 100 92 87 83 63 56 42 40
251 251 251 251 250 250 251 250 249 250 250 253 256 259 261 263 264 263 263 263 262 261 259 260 256 247 251 264 259 256 254 249 249 248 245 246 244 235 225 221 222 226 233 232 223 204 185 175 162 138 137 143 126 98 47 357 339 2 93 253 273 199 279 320 354 18 50 110 43 70 217 293 188 110 25 70 132 126 115 102 95 87 74 70 59 58 59 63
249 248 248 248 247 247 248 248 249 249 251 253 255 258 260 260 260 260 259 257 257 256 254 252 248 245 251 258 254 252 250 244 243 241 238 238 233 226 222 219 218 220 213 193 180 170 168 160 147 143 115 100 108 100 69 315 285 315 38 235 249 220 236 307 316 1 30 92 49 21 126 267 224 99 39 69 114 99 106 97 89 82 67 62 56 58 65 73
249 248 246 245 245 246 247 248 249 250 251 251 252 253 253 255 256 255 255 253 249 250 255 233 212 262 257 242 241 244 245 240 236 234 230 226 221 220 217 215 211 198 174 162 169 165 164 145 126 130 40 55 119 118 159 229 212 194 178 199 250 246 228 262 266 306 13 34 351 346 301 270 256 92 50 59 97 102 102 95 89 81 70 67 60 63 69 74
249 248 246 246 246 246 247 248 248 248 248 247 246 246 247 251 254 254 251 241 226 214 241 217 197 192 240 229 232 238 241 234 228 226 222 217 211 206 202 197 191 178 156 148 172 166 158 110 93 161 203 184 187 175 197 207 172 172 174 159 188 231 244 239 244 258 351 20 282 270 259 269 269 331 42 56 86 95 99 95 87 81 74 75 72 73 78 83
248 247 246 246 247 247 247 246 245 243 242 240 235 233 237 237 246 258 242 233 233 232 237 229 214 215 222 232 227 222 223 220 218 215 211 208 200 189 179 171 166 165 158 152 171 168 153 141 181 215 205 192 201 196 190 155 131 137 138 145 187 219 262 251 249 289 77 152 261 249 244 267 271 306 9 44 89 79 84 86 81 82 81 82 84 85 87 90
249 248 245 245 246 248 246 243 241 238 237 233 221 218 221 213 214 259 240 242 250 246 245 246 238 230 232 240 233 215 205 201 203 202 198 194 185 176 170 162 146 155 195 137 124 127 135 176 222 225 199 187 197 188 159 120 120 121 150 189 231 218 252 254 237 311 16 182 266 39 294 270 266 334 3 31 82 57 62 87 85 88 90 90 93 94 96 96
248 248 246 245 244 247 246 242 239 236 234 227 216 215 218 221 230 248 264 272 266 255 247 243 240 239 237 236 233 220 199 189 194 195 190 184 182 182 172 162 151 165 175 121 111 96 133 218 239 224 160 131 118 151 163 173 160 154 152 172 254 225 256 282 289 336 20 176 253 20 321 266 269 31 22 48 78 73 80 102 98 102 102 101 104 104 110 110
247 247 248 244 244 247 244 239 236 231 231 226 221 220 219 224 234 252 269 281 274 260 247 240 238 238 237 235 232 221 205 202 205 197 192 186 185 188 175 162 155 144 154 178 164 152 185 242 245 201 147 126 96 128 138 143 171 193 167 170 240 210 180 271 282 326 15 111 236 336 309 275 94 52 29 60 92 93 91 104 105 112 114 111 114 115 118 118
250 245 246 247 251 249 240 237 231 227 231 231 229 225 222 226 230 263 273 271 279 260 246 242 238 236 235 234 230 221 215 219 216 201 198 193 182 180 183 169 142 140 185 199 182 183 219 245 195 145 148 159 161 140 140 153 214 232 203 203 226 203 202 230 266 318 360 27 22 136 319 300 207 207 304 70 101 93 91 108 107 114 121 119 124 125 123 120
252 245 243 245 253 250 239 236 230 227 230 232 232 225 218 223 224 258 277 282 284 259 245 237 231 235 232 228 225 215 216 223 221 210 203 198 186 172 176 173 160 188 197 176 171 214 249 233 141 117 131 167 162 173 184 178 199 272 227 211 217 212 211 217 51 30 21 352 326 88 321 294 301 246 205 185 108 73 85 113 115 125 133 137 136 132 128 123
255 253 243 237 244 243 233 234 232 229 229 232 230 209 207 212 196 210 161 11 283 228 193 209 208 220 216 211 202 190 209 231 216 212 201 197 196 181 160 160 153 200 174 143 158 225 242 192 151 141 145 157 167 221 219 171 148 271 242 206 207 198 181 172 140 112 126 242 297 63 161 251 312 311 189 166 137 64 298 129 144 152 148 150 145 138 134 127
252 254 249 241 238 230 224 229 231 226 226 233 223 191 195 192 161 156 107 355 276 180 145 173 175 183 192 187 178 170 192 189 182 200 193 190 195 189 183 169 125 185 158 131 200 246 171 141 126 146 142 148 180 230 218 159 139 235 244 157 162 169 173 172 154 159 209 235 327 8 137 199 291 290 203 148 134 92 238 225 200 178 164 158 151 144 139 131
245 250 250 245 237 229 227 227 228 226 223 225 204 187 181 173 164 141 115 280 269 129 131 164 159 170 170 166 169 162 134 144 147 189 185 183 188 184 200 197 163 168 160 151 213 267 146 165 182 162 143 175 201 225 187 159 153 245 203 118 134 149 156 147 136 162 238 53 300 296 146 187 263 269 338 131 166 236 224 216 209 190 177 167 160 152 143 136
237 242 246 242 236 233 229 224 224 227 219 194 180 182 170 164 162 115 104 238 203 101 119 154 149 156 150 154 170 158 123 135 128 168 170 176 185 177 184 191 159 136 134 158 208 251 112 185 190 155 152 200 208 288 180 171 184 180 130 93 81 75 82 95 113 125 71 82 240 245 188 190 268 275 276 139 225 234 212 202 198 191 183 174 167 159 150 142
234 236 239 236 230 228 224 218 217 215 200 180 174 175 166 160 147 118 206 229 171 101 116 146 156 153 143 141 178 180 128 93 114 139 149 163 175 156 120 146 134 120 73 9 169 235 5 77 173 155 174 177 137 61 79 137 141 139 117 75 62 43 43 50 59 91 73 275 244 238 213 180 262 273 230 187 224 200 170 164 183 192 188 180 174 166 157 149
234 233 233 231 228 225 217 213 212 203 184 175 171 168 163 151 103 180 213 226 56 121 114 139 172 151 153 149 173 181 113 72 138 138 138 143 151 137 119 130 109 89 15 334 290 302 352 64 256 197 168 133 105 64 40 66 121 123 95 92 92 10 13 26 359 46 115 251 257 267 250 166 204 260 247 215 234 179 164 168 173 189 192 185 178 171 163 154
231 230 230 230 230 225 217 216 210 192 178 173 169 167 160 144 208 214 216 79 118 201 148 162 195 168 174 148 122 159 120 115 164 142 135 140 151 168 160 169 157 96 320 232 223 332 285 229 245 154 171 156 118 77 46 32 65 98 95 114 113 358 15 1 303 280 221 243 274 287 181 172 228 249 233 203 211 216 201 183 178 184 187 184 180 174 167 160
227 227 229 228 229 223 216 217 207 187 177 170 168 166 156 198 217 214 211 185 210 207 124 129 131 143 160 136 132 167 119 140 182 153 129 124 149 202 242 199 157 127 184 192 172 194 261 279 196 138 197 192 163 137 141 191 178 164 150 139 139 111 87 264 258 271 260 250 294 296 201 179 263 267 223 186 202 229 224 198 188 186 184 181 179 176 171 165
226 225 226 224 226 220 210 208 200 188 179 168 165 164 174 219 221 203 198 208 243 51 82 107 105 115 147 157 204 181 123 179 178 139 121 126 146 205 235 233 183 113 104 145 167 176 198 278 198 170 182 185 180 169 156 147 152 186 173 135 146 153 160 211 216 212 238 255 306 303 244 184 206 263 259 241 293 284 247 214 194 191 188 183 180 179 176 171
229 223 223 222 222 215 206 202 195 188 181 169 161 172 199 218 226 191 187 194 168 79 59 79 105 121 176 227 256 203 178 209 169 131 151 164 172 195 193 203 200 158 133 164 210 164 177 264 242 234 105 162 177 176 132 116 129 222 124 111 161 184 154 152 187 174 168 264 283 240 234 220 191 216 299 310 315 293 251 217 195 194 193 188 186 185 181 176
227 216 217 220 220 213 205 200 194 190 183 171 162 205 207 219 215 169 178 158 154 143 112 90 97 114 190 219 249 227 223 151 154 152 186 192 212 203 187 205 197 184 170 165 181 148 139 276 289 23 48 141 169 165 123 118 167 152 128 178 219 180 118 113 204 94 87 230 255 190 222 276 284 252 302 359 317 271 250 214 197 193 191 190 191 189 185 181
218 210 213 217 220 216 207 200 195 193 188 176 185 211 208 221 188 164 181 136 141 144 134 172 191 152 181 193 198 205 201 125 159 171 187 196 225 191 188 233 193 188 200 181 183 193 152 255 298 81 115 312 104 114 71 45 117 125 180 207 197 123 92 108 192 15 53 236 266 205 204 222 166 223 299 39 254 243 220 202 193 189 190 193 195 192 188 185
211 206 212 216 220 217 207 200 196 197 194 183 209 213 203 210 182 137 159 144 136 146 159 202 197 167 183 189 190 186 180 177 173 176 179 193 244 183 170 208 191 193 205 190 150 223 147 160 298 10 143 260 68 104 74 21 78 125 189 186 115 138 161 104 161 194 196 235 279 283 225 215 194 200 199 198 218 219 199 191 193 191 192 195 197 195 191 188
204 200 210 216 219 217 207 198 196 199 201 193 218 215 199 187 185 145 163 162 145 166 189 203 187 169 183 176 167 172 181 183 168 174 185 185 230 189 169 182 186 199 205 184 164 216 138 158 260 316 255 193 47 105 168 209 356 61 89 103 71 145 170 154 159 170 182 216 274 297 274 238 226 201 183 197 206 193 179 187 201 198 196 196 197 195 193 192
194 191 214 216 217 217 206 197 196 199 204 211 215 220 210 102 181 185 191 190 172 185 207 207 178 175 178 174 167 169 180 182 170 180 203 183 189 201 194 181 145 178 194 174 171 179 105 155 212 298 318 167 167 213 188 183 178 119 131 168 189 121 126 184 223 123 134 177 212 281 281 254 245 203 184 201 207 186 182 186 194 199 200 200 199 197 194 194
190 191 223 208 211 214 202 193 197 204 212 213 215 225 222 208 191 192 194 194 191 184 173 171 187 193 174 173 187 175 166 168 176 188 208 191 182 195 202 183 152 148 144 146 183 194 142 159 167 161 170 186 226 258 196 184 178 159 177 190 186 172 130 175 251 196 110 184 181 209 274 266 245 205 181 198 206 190 190 186 188 198 201 202 202 199 197 196
193 202 211 192 200 205 196 188 198 206 217 222 217 214 201 182 198 202 185 185 195 177 153 150 173 203 189 184 186 168 157 159 185 191 197 196 187 178 189 174 159 153 140 134 187 173 133 117 121 168 204 211 255 309 58 209 161 130 188 198 178 182 144 170 226 220 136 227 140 123 275 277 262 226 200 221 217 191 193 193 195 202 203 203 203 202 201 200
195 199 186 179 190 195 192 193 201 199 216 226 213 207 197 187 196 199 193 197 195 157 173 186 174 184 197 193 164 166 163 165 188 185 175 189 186 187 178 165 157 152 139 132 159 145 129 111 113 231 302 329 313 346 37 35 89 142 227 167 159 199 163 169 216 165 160 202 136 95 264 266 275 260 252 263 252 194 198 200 202 206 206 207 206 205 205 204
194 185 167 170 183 189 189 197 201 199 210 209 202 204 204 201 190 190 199 202 190 161 160 186 191 183 185 146 151 189 187 176 187 182 161 180 178 150 162 164 162 159 159 176 170 165 171 149 131 148 27 1 336 346 196 306 231 210 217 160 184 187 119 66 56 115 214 202 156 183 241 230 222 301 310 307 268 210 211 208 208 210 209 209 208 208 208 207
176 161 157 167 181 189 197 210 191 197 205 207 214 207 202 213 204 201 205 198 190 182 169 192 176 143 145 120 91 227 221 166 160 173 139 147 158 85 153 174 182 180 179 176 163 158 160 163 156 166 195 210 205 194 198 200 188 196 175 177 210 188 160 154 122 182 237 196 151 202 240 233 324 302 295 295 284 245 226 210 212 217 215 213 211 211 211 209
178 159 158 168 184 195 212 222 169 175 196 206 217 208 204 218 221 203 201 202 203 191 173 184 162 133 140 164 141 212 225 100 78 136 145 149 190 330 125 175 191 151 114 138 149 147 125 207 184 189 208 205 189 188 177 127 127 163 189 188 195 195 181 164 141 204 211 150 199 232 234 257 268 236 234 249 229 233 230 205 208 216 217 219 218 216 214 212
203 217 155 154 190 199 198 195 178 154 176 194 202 214 208 207 202 189 197 200 196 186 173 35 164 170 189 185 182 208 209 164 109 145 156 155 167 343 35 99 107 128 123 131 142 135 97 209 201 200 218 207 158 155 166 141 166 197 205 209 208 198 182 182 207 213 154 143 247 241 196 225 243 201 201 229 217 220 231 213 212 216 218 222 223 221 219 216
160 207 159 153 165 184 179 182 178 157 86 148 186 358 215 202 192 181 187 177 171 181 187 322 199 194 190 186 187 187 185 190 183 168 152 138 141 88 42 35 33 142 147 121 127 117 125 203 199 181 224 236 135 143 166 165 198 210 209 223 223 206 187 198 220 214 164 202 253 244 171 216 233 189 199 217 207 209 219 218 219 222 225 227 226 223 222 219
141 134 156 154 145 154 157 150 159 162 123 102 151 43 217 201 192 173 131 89 98 201 190 184 200 191 160 162 158 167 186 191 186 185 160 144 157 143 120 91 67 143 107 74 37 91 129 200 169 155 229 262 143 148 164 171 200 220 221 229 229 216 202 212 227 221 204 227 246 100 164 235 229 178 206 220 213 211 218 222 224 227 232 234 229 226 224 221
168 165 158 142 115 131 147 142 145 160 156 142 171 189 165 172 174 143 59 109 128 329 113 149 165 161 123 96 124 187 206 135 114 153 142 132 155 155 150 163 130 103 67 84 95 308 147 182 120 127 210 286 119 135 159 191 201 222 241 239 219 190 208 220 228 218 210 238 243 186 231 253 226 185 203 212 205 206 219 223 223 230 235 236 232 230 228 226
190 182 162 144 129 151 156 152 148 147 157 172 180 171 164 178 173 149 73 192 178 178 179 172 169 173 187 192 194 213 211 138 123 160 167 165 181 181 183 162 132 126 111 134 154 163 159 162 66 106 184 252 186 163 169 173 168 247 254 244 184 168 210 212 205 196 188 208 226 227 240 251 224 192 200 207 203 208 222 224 224 234 236 233 233 234 235 234
194 183 171 155 151 167 161 147 153 165 185 181 173 163 160 173 170 154 151 238 201 183 190 185 164 155 187 204 208 222 218 202 197 195 187 187 184 178 184 175 155 153 164 160 147 142 154 150 115 145 185 231 135 163 152 109 86 257 256 230 184 192 204 160 182 210 198 193 202 222 235 232 179 166 187 215 216 215 227 231 232 240 241 240 241 240 241 242
Height
1544 1544 1544 1545 1545 1546 1546 1547 1547 1548 1548 1549 1549 1549 1550 1550 1550 1550 1550 1551 1551 1552 1552 1552 1552 1552 1552 1552 1552 1552 1552 1551 1551 1551 1550 1550 1550 1550 1551 1551 1552 1552 1552 1552 1552 1552 1552 1552 1552 1552 1552 1552 1552 1552 1553 1553 1554 1553 1558 1560 1560 1566 1564 1561 1564 1563 1561 1561 1560 1560 1560 1561 1562 1562 1561 1560 1559 1559 1558 1558 1559 1558 1559 1559 1559 1558 1556 1555
1543 1543 1544 1545 1545 1545 1546 1546 1547 1547 1548 1548 1549 1549 1549 1549 1549 1550 1550 1550 1551 1551 1551 1551 1552 1551 1552 1551 1551 1551 1551 1551 1550 1550 1549 1549 1549 1550 1551 1551 1552 1552 1552 1551 1551 1551 1551 1552 1551 1552 1552 1552 1552 1553 1553 1554 1554 1555 1561 1561 1560 1564 1561 1559 1561 1560 1560 1560 1559 1560 1560 1560 1561 1561 1561 1560 1559 1558 1557 1557 1557 1557 1558 1558 1557 1556 1555 1554
1542 1543 1543 1544 1544 1545 1545 1546 1546 1546 1547 1547 1548 1548 1548 1549 1549 1549 1549 1550 1550 1550 1551 1551 1551 1551 1551 1551 1551 1551 1550 1550 1549 1549 1549 1549 1549 1550 1551 1551 1551 1551 1551 1551 1551 1551 1551 1551 1551 1551 1551 1552 1553 1553 1553 1554 1554 1556 1558 1559 1559 1560 1559 1558 1559 1559 1559 1559 1559 1559 1559 1560 1560 1561 1561 1560 1559 1557 1558 1557 1556 1556 1556 1556 1555 1554 1554 1553
1542 1542 1542 1543 1543 1544 1544 1545 1545 1545 1546 1546 1547 1547 1548 1548 1548 1549 1549 1549 1549 1550 1550 1550 1550 1550 1550 1550 1550 1550 1549 1549 1548 1548 1549 1549 1550 1550 1550 1551 1551 1551 1551 1551 1551 1551 1551 1551 1551 1551 1551 1552 1553 1553 1554 1554 1555 1556 1557 1557 1558 1559 1558 1557 1557 1558 1558 1558 1558 1558 1559 1559 1559 1560 1560 1560 1559 1557 1557 1557 1557 1556 1555 1555 1554 1553 1553 1552
1541 1541 1541 1542 1542 1543 1543 1543 1544 1544 1545 1545 1546 1546 1547 1547 1548 1548 1548 1548 1549 1549 1549 1549 1550 1550 1550 1550 1550 1550 1550 1550 1549 1548 1549 1549 1550 1550 1550 1550 1550 1550 1550 1550 1550 1550 1550 1550 1551 1551 1551 1552 1553 1553 1554 1555 1555 1556 1557 1557 1557 1558 1557 1556 1557 1558 1557 1557 1557 1557 1558 1557 1558 1559 1559 1559 1559 1558 1556 1556 1556 1556 1555 1554 1553 1553 1552 1552
1540 1540 1540 1541 1541 1542 1542 1543 1543 1543 1544 1545 1545 1545 1546 1546 1547 1547 1547 1547 1548 1548 1548 1549 1549 1549 1549 1549 1549 1549 1550 1551 1549 1549 1549 1549 1550 1550 1550 1550 1550 1550 1550 1550 1550 1550 1550 1550 1551 1551 1551 1552 1553 1553 1554 1555 1555 1555 1556 1557 1557 1557 1557 1556 1557 1556 1556 1557 1556 1556 1556 1557 1557 1557 1557 1558 1558 1558 1556 1556 1555 1555 1555 1554 1553 1553 1552 1552
1538 1539 1539 1540 1540 1541 1541 1542 1542 1542 1543 1544 1544 1544 1545 1545 1546 1546 1546 1546 1547 1547 1548 1548 1548 1548 1548 1548 1548 1548 1549 1549 1549 1549 1549 1549 1549 1549 1549 1549 1549 1549 1550 1550 1549 1549 1550 1550 1550 1551 1551 1552 1553 1554 1555 1555 1555 1556 1556 1556 1557 1557 1556 1556 1556 1556 1556 1555 1555 1555 1555 1555 1556 1556 1557 1557 1557 1557 1556 1556 1555 1555 1555 1554 1553 1553 1552 1551
1537 1537 1538 1539 1539 1540 1540 1540 1541 1541 1542 1543 1543 1543 1544 1544 1545 1545 1545 1545 1546 1546 1547 1547 1547 1547 1548 1548 1548 1548 1547 1547 1547 1548 1547 1548 1548 1548 1548 1548 1548 1549 1549 1549 1549 1549 1549 1550 1550 1551 1552 1553 1553 1554 1555 1555 1555 1556 1556 1556 1556 1556 1555 1555 1555 1555 1554 1554 1554 1554 1553 1554 1555 1555 1556 1557 1557 1556 1556 1556 1555 1555 1554 1554 1553 1552 1552 1551
1535 1535 1536 1537 1538 1538 1539 1539 1540 1540 1541 1541 1542 1542 1543 1543 1543 1544 1544 1544 1545 1545 1545 1546 1546 1546 1547 1547 1547 1547 1545 1545 1546 1546 1546 1546 1546 1547 1547 1547 1548 1548 1548 1549 1549 1549 1549 1550 1550 1550 1551 1553 1553 1554 1555 1555 1555 1556 1556 1556 1556 1555 1555 1554 1554 1553 1553 1552 1552 1552 1552 1553 1554 1554 1556 1557 1556 1556 1556 1556 1555 1555 1554 1553 1552 1551 1551 1550
1533 1534 1534 1535 1536 1537 1537 1538 1538 1539 1540 1540 1541 1541 1541 1542 1542 1542 1543 1543 1543 1544 1544 1544 1545 1545 1545 1545 1547 1546 1544 1544 1545 1544 1545 1545 1545 1546 1546 1546 1547 1547 1547 1548 1548 1548 1549 1549 1550 1550 1551 1552 1553 1554 1555 1555 1555 1556 1556 1556 1555 1555 1554 1553 1552 1552 1552 1551 1551 1551 1551 1552 1553 1553 1555 1557 1556 1556 1556 1556 1555 1555 1554 1552 1552 1551 1550 1550
1531 1532 1533 1533 1534 1535 1536 1536 1537 1538 1538 1539 1539 1539 1540 1540 1541 1541 1541 1542 1542 1542 1543 1543 1543 1544 1544 1544 1545 1544 1542 1543 1543 1543 1544 1544 1545 1545 1545 1546 1546 1546 1547 1547 1548 1548 1548 1549 1550 1550 1550 1552 1553 1554 1554 1555 1555 1556 1555 1555 1554 1554 1552 1551 1550 1550 1550 1549 1549 1550 1550 1551 1553 1553 1556 1557 1556 1556 1556 1555 1555 1554 1553 1552 1552 1551 1551 1550
1529 1530 1530 1531 1532 1533 1534 1535 1535 1536 1537 1537 1538 1538 1538 1539 1539 1539 1540 1540 1541 1541 1541 1542 1542 1542 1543 1543 1542 1541 1541 1542 1542 1543 1543 1543 1544 1544 1544 1545 1545 1545 1546 1547 1547 1547 1548 1548 1549 1550 1550 1551 1553 1554 1554 1555 1555 1555 1555 1555 1554 1553 1551 1549 1549 1549 1549 1549 1549 1549 1549 1550 1554 1555 1557 1557 1556 1557 1556 1555 1554 1554 1553 1552 1552 1551 1551 1550
1528 1528 1529 1529 1530 1531 1531 1532 1533 1534 1535 1535 1536 1536 1537 1537 1538 1538 1538 1539 1539 1540 1540 1540 1541 1541 1541 1540 1538 1539 1540 1540 1541 1541 1542 1542 1542 1543 1543 1544 1544 1545 1545 1546 1546 1547 1548 1548 1548 1549 1550 1551 1552 1553 1553 1555 1554 1554 1556 1556 1555 1554 1551 1549 1550 1550 1549 1549 1549 1550 1550 1551 1556 1557 1556 1556 1556 1556 1555 1554 1554 1554 1553 1552 1552 1551 1551 1550
1526 1526 1527 1527 1528 1528 1529 1530 1531 1532 1533 1534 1534 1535 1536 1536 1536 1537 1537 1538 1538 1538 1539 1539 1539 1540 1540 1538 1537 1537 1538 1538 1539 1539 1539 1540 1541 1541 1542 1542 1543 1544 1544 1545 1546 1546 1547 1547 1548 1549 1550 1551 1552 1553 1554 1555 1555 1555 1556 1557 1561 1559 1552 1549 1551 1550 1548 1549 1549 1551 1552 1551 1555 1558 1556 1556 1555 1555 1555 1554 1554 1553 1553 1552 1552 1551 1551 1550
1524 1525 1525 1526 1526 1527 1528 1529 1530 1531 1532 1532 1533 1534 1534 1535 1535 1535 1536 1536 1537 1537 1537 1538 1538 1538 1538 1536 1535 1535 1535 1536 1536 1537 1538 1538 1539 1539 1540 1541 1542 1543 1544 1544 1545 1546 1546 1547 1548 1548 1550 1551 1551 1553 1555 1556 1557 1559 1557 1558 1564 1563 1554 1551 1551 1551 1549 1550 1549 1551 1553 1551 1554 1558 1555 1555 1555 1554 1554 1553 1554 1553 1552 1552 1552 1552 1551 1550
1522 1523 1523 1524 1524 1525 1526 1527 1528 1529 1530 1531 1532 1532 1533 1533 1533 1534 1534 1535 1535 1536 1536 1537 1537 1537 1537 1534 1533 1533 1532 1533 1534 1534 1535 1536 1537 1538 1539 1540 1541 1542 1543 1543 1544 1545 1546 1547 1548 1549 1550 1550 1552 1554 1556 1559 1559 1561 1561 1558 1561 1562 1558 1554 1551 1552 1551 1550 1551 1551 1553 1551 1553 1557 1555 1555 1555 1553 1553 1553 1553 1553 1552 1552 1552 1552 1551 1551
1519 1520 1521 1522 1522 1523 1524 1526 1527 1527 1528 1529 1530 1530 1531 1532 1532 1532 1533 1533 1534 1534 1535 1535 1535 1536 1534 1531 1531 1530 1530 1531 1532 1533 1533 1534 1536 1536 1538 1539 1540 1541 1542 1543 1544 1545 1545 1546 1548 1549 1550 1552 1553 1554 1558 1562 1558 1560 1564 1561 1560 1561 1560 1555 1551 1552 1552 1551 1552 1553 1554 1551 1551 1556 1555 1554 1554 1553 1553 1553 1553 1552 1552 1552 1551 1551 1551 1551
1517 1518 1519 1519 1520 1521 1522 1523 1524 1526 1526 1527 1528 1529 1530 1530 1531 1531 1531 1532 1532 1533 1534 1533 1535 1537 1532 1527 1527 1527 1528 1529 1530 1531 1532 1533 1534 1535 1537 1538 1539 1540 1541 1543 1543 1544 1546 1546 1548 1549 1551 1553 1553 1553 1557 1556 1551 1553 1559 1559 1559 1560 1561 1558 1554 1552 1552 1551 1552 1554 1554 1551 1549 1554 1555 1554 1554 1553 1552 1553 1552 1552 1552 1552 1552 1551 1551 1551
1515 1516 1517 1517 1518 1519 1520 1521 1522 1523 1524 1525 1526 1527 1528 1529 1529 1529 1529 1530 1530 1531 1531 1528 1529 1532 1528 1524 1525 1526 1527 1528 1528 1529 1530 1531 1532 1534 1536 1537 1538 1539 1540 1542 1543 1544 1545 1546 1549 1550 1550 1551 1549 1549 1548 1547 1546 1549 1553 1555 1555 1555 1556 1556 1554 1553 1553 1552 1552 1552 1552 1550 1547 1551 1554 1554 1554 1553 1552 1553 1552 1552 1552 1552 1552 1551 1551 1551
1512 1514 1515 1515 1516 1517 1518 1519 1520 1521 1522 1523 1525 1526 1527 1528 1528 1528 1527 1526 1525 1525 1525 1524 1524 1525 1524 1523 1524 1525 1525 1527 1527 1528 1529 1530 1531 1533 1535 1536 1538 1539 1540 1541 1543 1544 1545 1547 1548 1545 1544 1545 1545 1545 1545 1546 1549 1551 1553 1555 1556 1555 1553 1552 1553 1553 1553 1553 1552 1552 1552 1551 1549 1551 1554 1554 1553 1553 1552 1552 1552 1552 1552 1552 1552 1552 1552 1552
1510 1512 1512 1513 1514 1514 1516 1517 1518 1519 1520 1521 1523 1524 1525 1525 1526 1526 1524 1522 1521 1521 1522 1522 1522 1522 1522 1523 1523 1523 1524 1525 1526 1527 1528 1529 1530 1532 1534 1536 1537 1539 1540 1541 1543 1544 1545 1547 1543 1539 1540 1542 1543 1545 1547 1548 1550 1551 1553 1554 1556 1558 1554 1551 1552 1553 1554 1553 1552 1554 1553 1549 1549 1553 1554 1554 1553 1553 1553 1553 1553 1552 1552 1552 1552 1552 1552 1552
1508 1509 1510 1512 1511 1512 1513 1515 1516 1517 1517 1519 1520 1521 1522 1523 1524 1523 1523 1521 1518 1518 1519 1519 1520 1520 1520 1521 1521 1522 1523 1523 1525 1525 1526 1528 1529 1530 1532 1534 1535 1537 1540 1541 1542 1545 1547 1545 1538 1537 1541 1543 1545 1547 1547 1549 1550 1551 1553 1555 1555 1555 1553 1552 1553 1554 1554 1552 1551 1554 1552 1546 1550 1555 1555 1554 1554 1554 1554 1553 1553 1553 1552 1553 1553 1553 1553 1553
1506 1506 1508 1509 1509 1511 1511 1512 1514 1514 1515 1516 1517 1519 1521 1522 1523 1523 1524 1521 1516 1514 1515 1515 1515 1515 1516 1518 1519 1520 1520 1521 1522 1522 1524 1526 1527 1528 1529 1532 1534 1536 1539 1539 1539 1544 1546 1540 1535 1538 1541 1542 1545 1547 1548 1549 1551 1551 1552 1554 1553 1553 1553 1550 1551 1553 1554 1553 1551 1553 1551 1546 1551 1556 1555 1556 1555 1554 1555 1554 1553 1553 1553 1553 1553 1553 1553 1553
1503 1505 1506 1507 1509 1509 1509 1511 1511 1511 1513 1513 1515 1517 1520 1521 1522 1523 1523 1521 1515 1510 1510 1510 1511 1510 1511 1514 1515 1517 1518 1518 1518 1519 1521 1522 1524 1527 1527 1529 1533 1536 1536 1536 1536 1538 1537 1535 1535 1537 1539 1541 1543 1546 1548 1548 1550 1551 1551 1551 1548 1549 1550 1548 1550 1552 1552 1554 1553 1552 1549 1544 1547 1551 1552 1556 1556 1555 1555 1554 1554 1553 1553 1553 1553 1553 1553 1553
1501 1503 1504 1505 1507 1507 1509 1509 1507 1509 1510 1511 1513 1517 1520 1521 1522 1523 1523 1522 1515 1507 1507 1506 1506 1506 1506 1510 1512 1513 1515 1515 1515 1516 1518 1519 1521 1524 1526 1527 1530 1532 1534 1536 1538 1537 1535 1534 1535 1536 1539 1541 1541 1544 1545 1545 1548 1549 1546 1544 1543 1544 1546 1548 1551 1552 1552 1552 1552 1552 1548 1541 1540 1545 1551 1556 1556 1556 1555 1554 1554 1553 1553 1553 1553 1553 1553 1553
1499 1501 1502 1503 1505 1506 1509 1505 1504 1508 1507 1508 1513 1516 1519 1520 1522 1523 1523 1527 1517 1503 1503 1503 1502 1502 1502 1506 1508 1512 1515 1512 1511 1514 1515 1517 1519 1520 1524 1526 1527 1529 1532 1536 1538 1537 1534 1534 1534 1535 1537 1539 1542 1542 1542 1543 1548 1547 1541 1539 1541 1543 1546 1549 1550 1551 1551 1551 1552 1555 1550 1544 1538 1537 1548 1556 1555 1556 1556 1554 1554 1553 1553 1552 1552 1552 1552 1553
1497 1499 1500 1501 1502 1504 1505 1502 1504 1505 1505 1508 1511 1515 1518 1518 1523 1522 1523 1534 1517 1492 1494 1499 1498 1499 1499 1502 1504 1509 1513 1508 1508 1513 1513 1515 1517 1518 1521 1524 1526 1528 1530 1534 1536 1533 1531 1533 1535 1535 1536 1540 1541 1539 1539 1542 1544 1543 1540 1539 1542 1543 1545 1547 1548 1549 1550 1550 1553 1554 1551 1552 1546 1539 1548 1555 1553 1556 1556 1555 1555 1553 1553 1553 1552 1553 1552 1552
1493 1495 1497 1498 1499 1500 1501 1501 1502 1502 1504 1509 1510 1514 1516 1518 1523 1520 1527 1538 1510 1483 1489 1495 1495 1496 1497 1501 1503 1504 1506 1505 1507 1511 1511 1513 1516 1517 1519 1521 1522 1525 1527 1529 1531 1530 1529 1531 1532 1533 1536 1539 1537 1535 1536 1538 1539 1540 1542 1543 1543 1543 1545 1547 1548 1550 1552 1553 1551 1550 1550 1553 1547 1540 1550 1555 1551 1552 1552 1552 1554 1552 1553 1553 1552 1553 1552 1552
1489 1491 1492 1495 1496 1497 1499 1500 1501 1502 1505 1508 1510 1513 1514 1519 1521 1520 1534 1533 1495 1480 1490 1491 1493 1496 1496 1501 1503 1502 1504 1504 1506 1508 1510 1513 1515 1515 1517 1519 1521 1524 1526 1526 1526 1527 1529 1529 1529 1531 1533 1534 1534 1535 1536 1535 1536 1539 1543 1544 1544 1547 1549 1550 1550 1549 1554 1555 1548 1544 1547 1548 1542 1534 1541 1548 1543 1542 1545 1547 1550 1550 1551 1552 1552 1553 1552 1552
1484 1486 1488 1491 1492 1493 1495 1496 1498 1501 1504 1507 1509 1512 1514 1518 1519 1527 1539 1518 1483 1482 1491 1489 1493 1496 1496 1501 1504 1503 1503 1504 1505 1507 1511 1513 1514 1515 1516 1519 1521 1524 1526 1527 1527 1527 1528 1529 1529 1529 1529 1530 1533 1537 1538 1537 1537 1539 1541 1541 1544 1548 1549 1551 1553 1552 1554 1553 1545 1546 1547 1546 1543 1530 1529 1537 1533 1532 1538 1544 1548 1549 1550 1550 1551 1552 1552 1552
1479 1480 1484 1486 1486 1488 1489 1489 1493 1499 1503 1505 1508 1511 1514 1516 1521 1529 1524 1495 1479 1486 1488 1490 1495 1494 1494 1496 1499 1502 1503 1505 1506 1506 1509 1511 1513 1515 1516 1518 1521 1526 1529 1528 1527 1528 1529 1529 1528 1527 1526 1529 1532 1536 1539 1540 1540 1539 1537 1538 1542 1547 1549 1551 1554 1553 1552 1546 1545 1554 1554 1549 1545 1529 1522 1530 1532 1533 1536 1538 1543 1546 1547 1548 1549 1550 1551 1551
1474 1476 1478 1480 1481 1483 1484 1485 1491 1498 1501 1503 1507 1509 1512 1519 1521 1516 1500 1483 1482 1484 1482 1488 1493 1492 1494 1493 1495 1500 1501 1504 1505 1505 1508 1511 1512 1513 1513 1514 1516 1523 1528 1527 1527 1528 1527 1525 1526 1525 1526 1527 1528 1533 1540 1542 1541 1539 1536 1538 1542 1547 1552 1550 1552 1556 1552 1545 1549 1557 1554 1548 1542 1527 1521 1528 1531 1535 1535 1535 1538 1540 1542 1546 1547 1549 1550 1551
1470 1472 1475 1475 1476 1479 1481 1484 1491 1496 1497 1500 1506 1506 1511 1518 1507 1491 1485 1481 1478 1478 1479 1484 1488 1491 1493 1493 1496 1498 1499 1502 1504 1505 1508 1509 1512 1512 1512 1512 1512 1513 1518 1524 1528 1527 1524 1523 1524 1524 1524 1524 1523 1527 1535 1537 1539 1538 1534 1535 1538 1546 1552 1549 1553 1560 1552 1545 1553 1558 1551 1546 1537 1525 1524 1529 1531 1534 1535 1536 1537 1538 1541 1543 1545 1548 1548 1549
1467 1470 1472 1472 1473 1476 1480 1484 1488 1492 1495 1498 1502 1505 1511 1507 1484 1472 1479 1478 1475 1478 1480 1482 1487 1492 1492 1492 1494 1495 1496 1501 1503 1504 1507 1509 1512 1512 1511 1512 1512 1509 1513 1522 1526 1524 1522 1518 1516 1518 1518 1518 1519 1520 1523 1528 1534 1536 1534 1532 1532 1535 1537 1537 1541 1542 1538 1542 1554 1557 1546 1533 1524 1523 1530 1532 1533 1535 1534 1535 1538 1538 1542 1543 1544 1547 1547 1548
1463 1466 1469 1469 1471 1473 1477 1481 1485 1489 1492 1493 1497 1503 1501 1487 1471 1468 1472 1472 1475 1480 1481 1483 1487 1492 1493 1493 1494 1493 1492 1497 1502 1504 1506 1507 1507 1507 1506 1506 1509 1508 1510 1516 1519 1522 1522 1513 1509 1514 1514 1514 1516 1517 1520 1523 1530 1537 1537 1534 1531 1526 1524 1536 1547 1544 1541 1545 1549 1549 1537 1524 1522 1528 1535 1535 1532 1534 1533 1534 1537 1537 1540 1542 1543 1545 1545 1546
1459 1462 1464 1465 1466 1469 1473 1478 1482 1485 1486 1487 1493 1494 1481 1467 1464 1466 1463 1464 1470 1475 1481 1486 1487 1490 1494 1493 1494 1494 1491 1493 1501 1503 1504 1506 1504 1503 1502 1499 1502 1503 1502 1505 1510 1518 1520 1513 1512 1516 1515 1516 1517 1516 1519 1519 1522 1534 1537 1530 1528 1527 1524 1534 1551 1558 1556 1543 1536 1537 1529 1523 1526 1526 1531 1535 1532 1533 1534 1533 1534 1536 1538 1540 1541 1542 1543 1544
1455 1457 1458 1458 1460 1464 1469 1474 1478 1482 1481 1481 1482 1477 1465 1459 1461 1461 1459 1461 1464 1468 1475 1480 1480 1482 1487 1489 1490 1492 1490 1492 1498 1499 1501 1504 1499 1495 1497 1495 1495 1497 1496 1497 1502 1507 1509 1509 1514 1516 1514 1517 1518 1517 1519 1519 1519 1528 1531 1524 1525 1529 1527 1528 1536 1548 1554 1542 1532 1533 1525 1520 1521 1518 1525 1534 1529 1529 1533 1532 1534 1536 1536 1537 1538 1539 1541 1542
1450 1453 1453 1453 1455 1460 1466 1471 1475 1478 1476 1474 1471 1464 1458 1458 1458 1457 1459 1460 1461 1465 1467 1468 1470 1472 1477 1481 1483 1486 1487 1489 1494 1496 1496 1498 1490 1484 1488 1490 1490 1492 1492 1493 1497 1500 1502 1505 1514 1519 1517 1517 1518 1517 1519 1522 1521 1522 1522 1521 1522 1525 1526 1530 1532 1533 1539 1536 1529 1530 1530 1523 1516 1511 1516 1522 1520 1521 1528 1532 1532 1532 1532 1534 1534 1537 1539 1540
1447 1450 1449 1448 1453 1457 1462 1468 1472 1474 1473 1470 1468 1462 1455 1455 1456 1456 1458 1458 1459 1461 1461 1459 1463 1467 1472 1473 1474 1480 1482 1483 1489 1491 1488 1489 1485 1479 1481 1482 1485 1490 1491 1492 1495 1499 1500 1501 1509 1518 1518 1517 1518 1517 1517 1520 1522 1522 1522 1523 1523 1522 1522 1527 1529 1525 1526 1529 1525 1524 1525 1517 1509 1506 1504 1505 1509 1515 1522 1527 1527 1526 1527 1528 1529 1532 1535 1537
1444 1446 1444 1445 1451 1455 1460 1466 1468 1469 1467 1464 1463 1460 1455 1455 1456 1456 1457 1458 1458 1459 1458 1457 1459 1462 1467 1469 1470 1473 1476 1479 1484 1484 1480 1480 1480 1478 1479 1478 1481 1488 1491 1493 1495 1497 1500 1500 1505 1516 1520 1517 1515 1514 1512 1513 1517 1519 1521 1523 1523 1524 1525 1525 1526 1526 1523 1523 1523 1522 1515 1505 1504 1506 1502 1500 1507 1512 1514 1518 1519 1522 1524 1524 1527 1529 1531 1533
1442 1443 1440 1442 1447 1451 1457 1462 1461 1461 1459 1457 1458 1457 1455 1455 1455 1455 1456 1457 1457 1457 1457 1458 1458 1459 1461 1465 1466 1467 1472 1477 1479 1478 1476 1475 1474 1474 1474 1474 1478 1483 1489 1494 1494 1493 1497 1500 1504 1513 1517 1512 1510 1512 1512 1512 1512 1513 1514 1516 1516 1517 1521 1522 1524 1528 1527 1522 1520 1521 1513 1501 1502 1508 1506 1506 1509 1510 1511 1514 1516 1518 1520 1521 1524 1527 1529 1530
1439 1438 1436 1438 1442 1446 1452 1453 1451 1454 1454 1451 1450 1451 1453 1453 1454 1455 1456 1456 1457 1457 1457 1458 1459 1459 1459 1458 1460 1462 1466 1472 1475 1474 1471 1470 1470 1469 1469 1471 1474 1477 1482 1488 1490 1489 1493 1498 1503 1508 1511 1510 1511 1514 1516 1515 1514 1513 1512 1512 1513 1512 1513 1514 1516 1522 1528 1526 1525 1527 1518 1503 1504 1510 1509 1508 1509 1509 1511 1513 1514 1516 1517 1519 1522 1524 1527 1529
1433 1433 1433 1435 1438 1441 1446 1447 1446 1449 1448 1445 1445 1447 1449 1450 1451 1453 1454 1455 1456 1456 1456 1457 1456 1458 1458 1457 1459 1459 1460 1465 1469 1468 1466 1467 1467 1468 1469 1470 1472 1474 1477 1482 1486 1488 1491 1496 1501 1506 1510 1512 1514 1514 1515 1516 1515 1513 1512 1513 1514 1512 1510 1511 1512 1515 1519 1519 1523 1529 1519 1504 1505 1511 1509 1508 1508 1508 1510 1511 1512 1515 1516 1518 1521 1523 1525 1527
1430 1431 1431 1432 1435 1437 1438 1439 1439 1442 1443 1443 1444 1445 1446 1447 1448 1449 1450 1451 1453 1454 1454 1455 1454 1455 1456 1457 1458 1457 1456 1458 1463 1464 1464 1465 1466 1468 1470 1470 1471 1472 1473 1474 1477 1481 1487 1493 1498 1504 1509 1512 1513 1513 1513 1515 1514 1510 1510 1513 1512 1510 1513 1515 1516 1516 1515 1511 1513 1517 1509 1500 1505 1511 1508 1508 1509 1508 1509 1510 1511 1513 1515 1517 1519 1520 1522 1525
1429 1430 1430 1430 1432 1434 1433 1432 1434 1437 1439 1441 1443 1443 1444 1445 1443 1444 1446 1447 1449 1450 1451 1452 1452 1453 1455 1456 1457 1457 1454 1455 1459 1462 1464 1465 1467 1470 1470 1471 1471 1470 1470 1470 1471 1474 1482 1488 1491 1495 1501 1502 1502 1503 1503 1506 1509 1509 1510 1513 1511 1511 1512 1512 1515 1517 1514 1511 1510 1507 1499 1497 1504 1509 1507 1507 1509 1508 1508 1509 1511 1512 1513 1514 1515 1516 1519 1522
1426 1427 1429 1430 1431 1431 1431 1431 1432 1435 1437 1439 1441 1441 1441 1442 1441 1441 1443 1444 1446 1447 1448 1450 1450 1452 1454 1455 1456 1456 1454 1455 1458 1460 1463 1466 1468 1471 1471 1471 1472 1470 1470 1470 1471 1475 1482 1487 1486 1485 1486 1486 1487 1490 1493 1495 1500 1504 1506 1507 1508 1509 1509 1510 1514 1514 1511 1513 1512 1502 1498 1499 1500 1503 1505 1505 1506 1506 1505 1507 1508 1509 1509 1510 1511 1513 1516 1519
1424 1424 1426 1427 1429 1430 1431 1431 1432 1433 1434 1436 1438 1438 1437 1439 1440 1440 1441 1442 1443 1445 1447 1448 1448 1449 1452 1453 1455 1456 1455 1456 1458 1460 1463 1466 1469 1472 1472 1472 1472 1471 1471 1471 1472 1476 1481 1484 1484 1483 1482 1482 1484 1488 1492 1493 1495 1497 1499 1500 1502 1504 1506 1507 1507 1503 1505 1512 1507 1496 1498 1501 1496 1499 1503 1502 1502 1504 1504 1504 1505 1505 1506 1507 1509 1512 1514 1517
1422 1423 1422 1423 1425 1427 1429 1430 1430 1432 1434 1435 1436 1437 1435 1435 1437 1438 1439 1441 1441 1442 1445 1447 1446 1446 1448 1449 1453 1457 1458 1458 1459 1460 1463 1466 1469 1472 1473 1473 1473 1472 1472 1473 1473 1475 1478 1479 1482 1484 1483 1484 1488 1491 1492 1492 1494 1495 1495 1495 1494 1498 1503 1503 1500 1498 1501 1503 1497 1493 1498 1499 1494 1497 1500 1498 1499 1501 1501 1502 1503 1503 1505 1505 1507 1510 1511 1513
1420 1422 1422 1422 1423 1425 1427 1428 1429 1432 1435 1435 1437 1438 1436 1434 1434 1435 1437 1440 1442 1441 1443 1446 1447 1447 1448 1449 1452 1456 1457 1456 1457 1459 1461 1464 1467 1469 1471 1472 1474 1474 1473 1474 1474 1475 1476 1478 1482 1484 1483 1484 1491 1493 1493 1494 1495 1496 1495 1492 1490 1493 1498 1498 1496 1497 1498 1496 1495 1499 1502 1497 1494 1496 1497 1496 1498 1499 1500 1501 1501 1502 1503 1504 1505 1506 1507 1509
1418 1420 1421 1422 1424 1425 1426 1427 1429 1431 1434 1435 1435 1436 1437 1436 1436 1436 1437 1440 1443 1443 1442 1445 1449 1449 1450 1452 1454 1455 1454 1453 1455 1458 1459 1462 1464 1465 1467 1467 1470 1474 1475 1475 1477 1477 1477 1479 1483 1484 1484 1488 1493 1496 1497 1496 1497 1497 1493 1488 1490 1496 1497 1497 1497 1497 1499 1498 1498 1502 1503 1496 1493 1495 1496 1496 1497 1498 1498 1499 1500 1501 1501 1502 1503 1504 1505 1507
1417 1418 1419 1421 1423 1424 1425 1426 1428 1430 1432 1432 1432 1433 1436 1436 1437 1438 1439 1440 1441 1443 1443 1445 1448 1450 1451 1453 1455 1454 1453 1453 1456 1457 1458 1460 1462 1462 1464 1465 1468 1473 1476 1476 1477 1476 1478 1482 1485 1486 1486 1488 1493 1498 1498 1498 1501 1500 1488 1483 1491 1494 1491 1491 1494 1493 1494 1496 1497 1499 1497 1491 1490 1492 1494 1495 1496 1496 1496 1497 1499 1499 1499 1500 1501 1502 1503 1504
1416 1417 1418 1419 1421 1423 1424 1425 1427 1427 1427 1427 1428 1430 1432 1434 1436 1437 1439 1440 1440 1441 1443 1443 1445 1449 1451 1452 1452 1452 1453 1454 1456 1457 1458 1459 1460 1460 1462 1464 1466 1469 1473 1476 1477 1476 1478 1480 1483 1487 1486 1487 1496 1501 1499 1501 1504 1493 1476 1473 1482 1485 1484 1487 1490 1488 1488 1489 1491 1491 1487 1484 1488 1491 1493 1493 1493 1494 1495 1495 1497 1497 1498 1499 1499 1500 1502 1502